Location: Falkner
(32.6954°N, 86.0502°W)
Time: 12:21:40
(UTC+00:00)

NOSS 3-3 (C) - Pass Details

Date: 29 October 2020
Orbit: 827 x 1385 km, 63.5° (Epoch: 29 November)

Event Time Altitude Azimuth Distance (km) Brightness Sun altitude
Rises 23:20:58 0° 204° (SSW) 3,356 7.4 -6.0°
Reaches altitude 10° 23:23:20 10° 203° (SSW) 2,444 6.6 -6.5°
Maximum altitude 23:28:55 77° 117° (ESE) 907 3.8 -7.6°
Drops below altitude 10° 23:35:05 10° 33° (NNE) 2,692 5.9 -8.9°
Sets 23:37:48 0° 32° (NNE) 3,721 6.6 -9.5°
